sat.trackr.live / text

‹ back to catalog

STARLINK-31947

NORAD 59835 · 2024-097A

PAYLOAD ACTIVE UNKNOWN

§ Identity

Operator
Country
US
Launch date
2024-05-23
Launch site
AFETR
Launch vehicle
Mass (kg)
RCS (m²)

Purposes: comms

External: N2YO · Heavens-Above · Gunter

§ Orbital elements

Epoch: 2026-05-25T03:42:22.512672Z

Period
94.27 min
Inclination
43.0040°
Eccentricity
0.0001856
Mean motion
15.27574929 rev/d
Perigee alt
481.8 km
Apogee alt
484.3 km
Semi-major
6,861.2 km
B*
1.1740e-5
RAAN
202.3164°
Arg perigee
273.3244°
Mean anomaly
86.7396°
Rev number
11,361

§ Raw data

STARLINK-319471 59835U 24097A   26145.15442723  .00000061  00000+0  11740-4 0  99912 59835  43.0040 202.3164 0001856 273.3244  86.7396 15.27574929113618

JSON: /api/v1/satellites/59835 · /tle

For live sub-satellite position, see the globe view (requires WebGL).

§ Visibility from observer

Set your observer location to see the next 7 days of passes ≥ 10°. The values pass through the URL so the page stays shareable.

No JS? Fill the form by hand. The geolocation button needs JavaScript.